Weather in Lafayette

United States     30°11′57″N   92°02′30″W
temp.,
°C
wind,
m/s
gust,
m/s
humid.,
%
clouds,
%
prec.,
mm/h
press.,
hPa
HPBL,
m
23 may, mon
mon2301:00+20n4897100 49.5 1017297
04:00+20n4695100 0.0 1016349
07:00+20ne4695100 0.0 1016265
10:00+24ne3382100 0.1 1018725
13:00+27ne237053 0.1 1016948
16:00+29ene226064 0.7 10131335
19:00+25ene45819 3.1 1014246
22:00+22e359263 0.1 1013107
24 may, tue
tue2401:00+22se36945 0.1 1013133
04:00+21ese359650 0.0 1012114
07:00+22ese499512 0.0 1012273
10:00+28sse811707 0.9 10121366
13:00+30s8115455 0.9 10121796
16:00+30s9116115 0.0 10101537
19:00+27sse711762 0.1 1011875
22:00+25sse713830 0.0 1011618
25 may, wed
wed2501:00+25sse6128714 0.0 1011636
04:00+23se499399 0.1 1011284
07:00+24sse4119015 0.1 1011584
10:00+29s8106331 0.4 10121597
13:00+31s8105118 1.4 10121998
16:00+29s7964100 0.9 10111223
19:00+21n5896100 10.8 1012243
22:00+21ene3495100 0.0 1012140
26 may, thu
thu2601:00+21nnw2296100 2.3 1012103
04:00+21ssw2397100 18.9 1011111
07:00+20w229999 38.1 101198
10:00+24w578353 1.9 1012867
13:00+28wnw68500 1.9 10121472
16:00+29w59420 0.0 10112415
19:00+26w34600 0.0 101069
22:00+21nw39670 0.0 1012169
27 may, fri
fri2701:00+19nw22730 0.0 101316
04:00+18w22770 0.0 101220
07:00+18w35820 0.0 1014127
10:00+24wnw46590 0.0 1015790
13:00+27w58500 0.0 10141820
16:00+29w59403 0.0 10122672
19:00+27nw22570 0.0 101035
22:00+22w22580 0.0 101213